GW4770 Weather Reports


Display with metric or nautical units.
time (UTC)temp
F
wind
direction
speed
MPH
gust
MPH
rain 1hr
in
rain 24hr
in
rain mn
in
humidity
%
barometer
mb
20260507222518 0 79 1.0 2.0 0.00 0.00 0.00
20260507221518 0 86 1.0 2.0 0.00 0.00 0.00
20260507220518 0 107 2.0 3.0 0.00 0.00 0.00
20260507215537 0 81 1.0 2.0 0.00 0.00 0.00
20260507214516 0 77 2.0 4.0 0.00 0.00 0.00
20260507213517 0 91 1.0 3.0 0.00 0.00 0.00
20260507212516 0 90 2.0 3.0 0.00 0.00 0.00
20260507211517 0 97 2.0 4.0 0.00 0.00 0.00
20260507210517 0 87 2.0 3.0 0.00 0.00 0.00
20260507205517 0 97 2.0 4.0 0.00 0.00 0.00
20260507204518 0 104 2.0 3.0 0.00 0.00 0.00
20260507203537 0 85 2.0 4.0 0.00 0.00 0.00
20260507202518 0 97 3.0 6.0 0.00 0.00 0.00
20260507201517 0 75 3.0 6.0 0.00 0.00 0.00
20260507200516 0 93 3.0 7.0 0.00 0.00 0.00
20260507195518 0 89 3.0 7.0 0.00 0.00 0.00
20260507194517 0 84 3.0 5.0 0.00 0.00 0.00
20260507193518 0 101 3.0 6.0 0.00 0.00 0.00
20260507192518 0 92 2.0 5.0 0.00 0.00 0.00
20260507191518 0 93 3.0 7.0 0.00 0.00 0.00
20260507190518 0 103 2.0 4.0 0.00 0.00 0.00
20260507185518 0 83 2.0 7.0 0.00 0.00 0.00
20260507184519 0 91 4.0 7.0 0.00 0.00 0.00
20260507183538 0 88 3.0 7.0 0.00 0.00 0.00
20260507182517 0 94 3.0 6.0 0.00 0.00 0.00
20260507181516 70 95 3.0 5.0 0.00 0.00 0.00 100 1020.9
20260507180516 70 91 3.0 6.0 0.00 0.00 0.00 100 1021.6
20260507175517 70 89 4.0 7.0 0.00 0.00 0.00 100 1021.5
20260507174516 71 90 3.0 6.0 0.00 0.00 0.00 100 1020.6
20260507173536 71 93 3.0 6.0 0.00 0.00 0.00 100 1020.4
20260507172517 71 105 2.0 4.0 0.00 0.00 0.00 100 1019.9
20260507171518 72 88 2.0 4.0 0.00 0.00 0.00 100 1019.2
20260507170517 73 91 2.0 4.0 0.00 0.00 0.00 100 1018.4
20260507165517 73 100 1.0 3.0 0.00 0.00 0.00 100 1017.8
20260507164516 73 99 2.0 4.0 0.00 0.00 0.00 100 1018.0
20260507163516 73 91 1.0 3.0 0.00 0.00 0.00 100 1018.0
20260507162537 73 86 2.0 4.0 0.00 0.00 0.00 100 1018.0
20260507161518 74 82 1.0 3.0 0.00 0.00 0.00 100 1017.7
20260507160517 74 86 2.0 4.0 0.00 0.00 0.00 100 1017.0
20260507155517 74 90 2.0 4.0 0.00 0.00 0.00 100 1017.0
20260507154516 74 75 2.0 4.0 0.00 0.00 0.00 100 1016.5
20260507153517 75 76 1.0 3.0 0.00 0.00 0.00 100 1015.7
20260507152518 75 347 0.0 1.0 0.00 0.00 0.00 100 1015.4
20260507151518 75 76 1.0 2.0 0.00 0.00 0.00 100 1015.3
20260507150517 76 84 1.0 2.0 0.00 0.00 0.00 100 1014.6
20260507145518 76 80 1.0 3.0 0.00 0.00 0.00 100 1014.6
20260507144516 75 89 1.0 2.0 0.00 0.00 0.00 100 1014.5
20260507143517 75 83 1.0 3.0 0.00 0.00 0.00 100 1014.4
20260507142516 76 75 1.0 2.0 0.00 0.00 0.00 100 1013.6
20260507141517 76 76 2.0 3.0 0.00 0.00 0.00 100 1013.7
20260507140517 76 96 1.0 2.0 0.00 0.00 0.00 100 1013.5
20260507135516 76 92 2.0 4.0 0.00 0.00 0.00 100 1013.0
20260507134516 76 97 1.0 3.0 0.00 0.00 0.00 100 1012.5
20260507133517 77 88 2.0 3.0 0.00 0.00 0.00 100 1011.9
20260507132518 77 93 1.0 2.0 0.00 0.00 0.00 100 1011.3
20260507131516 77 98 1.0 2.0 0.00 0.00 0.00 100 1011.1
20260507130557 78 96 2.0 3.0 0.00 0.00 0.00 100 1010.9
20260507125516 78 79 1.0 2.0 0.00 0.00 0.00 99 1010.0
20260507123528 78 86 1.0 4.0 0.00 0.00 0.00 94 1009.9
20260507122545 79 91 1.0 2.0 0.00 0.00 0.00 85 1008.9
20260507121528 79 93 2.0 4.0 0.00 0.00 0.00 85 1009.4
20260507120518 79 92 2.0 4.0 0.00 0.00 0.00 77 1009.0
20260507115526 80 94 1.0 3.0 0.00 0.00 0.00 69 1008.2
20260507114524 80 114 2.0 4.0 0.00 0.00 0.00 66 1008.0
20260507113528 80 84 2.0 4.0 0.00 0.00 0.00 63 1007.9
20260507112517 81 53 1.0 2.0 0.00 0.00 0.00 62 1007.7
20260507111517 81 95 2.0 4.0 0.00 0.00 0.00 59 1007.3
20260507110537 81 90 2.0 4.0 0.00 0.00 0.00 61 1007.5
20260507105518 81 98 2.0 6.0 0.00 0.00 0.00 61 1007.4
20260507104518 81 102 1.0 4.0 0.00 0.00 0.00 62 1007.3
20260507103517 81 100 3.0 5.0 0.00 0.00 0.00 59 1007.7
20260507102517 82 85 2.0 4.0 0.00 0.00 0.00 61 1007.0
20260507101517 81 86 2.0 4.0 0.00 0.00 0.00 65 1007.8
20260507100518 81 101 2.0 4.0 0.00 0.00 0.00 63 1008.1
20260507095518 83 72 2.0 5.0 0.00 0.00 0.00 56 1006.1
20260507094516 82 90 4.0 6.0 0.00 0.00 0.00 56 1007.0
20260507093518 83 69 2.0 5.0 0.00 0.00 0.00 57 1006.6
20260507092519 84 114 2.0 4.0 0.00 0.00 0.00 56 1005.5
20260507091539 83 109 1.0 3.0 0.00 0.00 0.00 60 1006.0
20260507090518 83 87 2.0 5.0 0.00 0.00 0.00 61 1006.6
20260507085519 84 109 2.0 4.0 0.00 0.00 0.00 57 1005.7
20260507084540 84 112 1.0 4.0 0.00 0.00 0.00 58 1005.4
20260507083518 84 241 1.0 1.0 0.00 0.00 0.00 58 1005.3
20260507082602 85 87 2.0 4.0 0.00 0.00 0.00 54 1004.6
20260507081520 85 64 1.0 2.0 0.00 0.00 0.00 55 1005.2
20260507080543 87 106 1.0 2.0 0.00 0.00 0.00 53 1003.5
20260507075520 86 351 1.0 1.0 0.00 0.00 0.00 54 1003.8
20260507074518 86 202 1.0 3.0 0.00 0.00 0.00 57 1004.5
20260507073518 85 129 1.0 2.0 0.00 0.00 0.00 59 1005.7
20260507072556 85 204 1.0 2.0 0.00 0.00 0.00 57 1005.5
20260507071519 86 231 1.0 2.0 0.00 0.00 0.00 56 1004.8
20260507070519 88 213 2.0 3.0 0.00 0.00 0.00 55 1003.6
20260507065517 88 189 1.0 4.0 0.00 0.00 0.00 55 1003.7
20260507064538 88 212 1.0 3.0 0.00 0.00 0.00 54 1003.7
20260507063517 88 208 1.0 3.0 0.00 0.00 0.00 55 1004.1
20260507062516 86 170 1.0 3.0 0.00 0.00 0.00 55 1005.7
20260507061537 86 160 2.0 4.0 0.00 0.00 0.00 54 1005.8
20260507060517 89 230 1.0 2.0 0.00 0.00 0.00 52 1003.5
20260507055515 89 226 1.0 3.0 0.00 0.00 0.00 55 1003.5
20260507054537 87 161 1.0 2.0 0.00 0.00 0.00 60 1005.7
20260507053517 86 219 1.0 3.0 0.00 0.00 0.00 61 1006.4
20260507052530 87 162 1.0 2.0 0.00 0.00 0.00 60 1006.0
20260507051517 87 224 1.0 3.0 0.00 0.00 0.00 64 1006.2
20260507050703 85 245 1.0 3.0 0.00 0.00 0.00 66 1008.0
20260507045538 85 207 1.0 3.0 0.00 0.00 0.00 66 1007.7
20260507044517 85 218 2.0 4.0 0.00 0.00 0.00 67 1007.4
20260507043517 85 213 2.0 4.0 0.00 0.00 0.00 71 1007.9
20260507042518 85 217 2.0 4.0 0.00 0.00 0.00 71 1008.2
20260507041518 85 225 2.0 5.0 0.00 0.00 0.00 69 1007.5
20260507040518 85 225 1.0 2.0 0.00 0.00 0.00 82 1007.9
20260507034518 83 145 1.0 3.0 0.00 0.00 0.00 98 1009.7
20260507033541 83 233 1.0 2.0 0.00 0.00 0.00 100 1009.3
20260507032518 82 215 1.0 3.0 0.00 0.00 0.00 100 1010.5
20260507031525 81 216 1.0 3.0 0.00 0.00 0.00 100 1011.1
20260507030518 80 197 1.0 3.0 0.00 0.00 0.00 100 1012.4
20260507025530 80 175 1.0 3.0 0.00 0.00 0.00 100 1012.3
20260507024516 78 193 1.0 2.0 0.00 0.00 0.00 100 1013.9
20260507023517 77 213 1.0 3.0 0.00 0.00 0.00 100 1015.4
20260507022516 75 218 1.0 3.0 0.00 0.00 0.00 100 1016.8
20260507021559 74 215 1.0 3.0 0.00 0.00 0.00 100 1017.9
20260507020540 73 205 1.0 2.0 0.00 0.00 0.00 100 1018.0
20260507015538 73 193 1.0 2.0 0.00 0.00 0.00 100 1018.5
20260507014516 72 212 1.0 3.0 0.00 0.00 0.00 100 1018.9
20260507013517 71 190 1.0 2.0 0.00 0.00 0.00 100 1019.8
20260507012518 71 208 1.0 1.0 0.00 0.00 0.00 100 1019.8
20260507011517 71 194 1.0 3.0 0.00 0.00 0.00 100 1019.9
20260507010537 71 193 1.0 2.0 0.00 0.00 0.00 100 1019.4
20260507005518 70 211 1.0 2.0 0.00 0.00 0.00 100 1019.7
20260507004517 70 192 1.0 2.0 0.00 0.00 0.00 100 1019.9
20260507003517 70 203 1.0 2.0 0.00 0.00 0.00 100 1020.0
20260507002519 70 200 1.0 2.0 0.00 0.00 0.00 100 1019.7
20260507001517 70 183 1.0 3.0 0.00 0.00 0.00 100 1019.6
20260507000517 70 197 1.0 1.0 0.00 0.00 0.00 100 1019.8
20260506235518 70 186 1.0 2.0 0.00 0.00 0.00 100 1019.5
20260506234518 70 210 1.0 2.0 0.00 0.00 0.00 100 1019.2
20260506233516 70 200 1.0 1.0 0.00 0.00 0.00 100 1019.4
20260506232517 70 211 1.0 2.0 0.00 0.00 0.00 100 1019.5
20260506231517 70 203 1.0 2.0 0.00 0.00 0.00 100 1019.4
20260506230516 69 169 1.0 2.0 0.00 0.00 0.00 100 1019.9
20260506225517 69 111 2.0 4.0 0.00 0.00 0.00 100 1020.1
20260506224517 70 186 1.0 4.0 0.00 0.00 0.00 100 1019.0
20260506223516 69 196 2.0 4.0 0.00 0.00 0.00 100 1019.1